Glencoe, MN

8:22 PM CST on December 08, 2019 (GMT -0600)
Glencoe Municipal

Weather History for KGYL - October, 2019

Change the Weather History Date:

Thursday, October 3, 2019

  Actual Average (KHCD) Record (KHCD)
Temperature  
Mean Temperature 46 °F -  
Max Temperature 48 °F 66 °F 89 °F (1997)
Min Temperature 44 °F 42 °F 21 °F (1996)
Degree Days  
Heating Degree Days 19    
Moisture  
Dew Point 43 °F    
Average Humidity 89    
Maximum Humidity 100    
Minimum Humidity 76    
Precipitation  
Precipitation 0.03 in - - ()
Sea Level Pressure  
Sea Level Pressure 30.20 in    
Wind  
Wind Speed 7 mph (WNW)    
Max Wind Speed 14 mph    
Max Gust Speed 22 mph    
Visibility 9 miles    
Events      
Averages and records for this station are not official NWS values.
T = Trace of Precipitation, MM = Missing Value Source: NWS Daily Summary

Daily Weather History Graph

Daily Weather History Graph

Search for Another Location

Airport or City:

Astronomy

Oct. 03, 2019 Rise Set
Actual Time 7:16 AM CDT 6:53 PM CDT
Civil Twilight 6:47 AM CDT 7:22 PM CDT
Nautical Twilight 6:13 AM CDT 7:56 PM CDT
Astronomical Twilight 5:39 AM CDT 8:30 PM CDT
Moon 1:01 PM CDT (10/3) 10:20 PM CDT (10/3)
Length of Visible Light 12h 35m
Length of Day
11h 37m
Waxing Crescent, 30% of the Moon is Illuminated
Oct 3
Waxing Crescent
Oct 5
First Quarter
Oct 13
Full
Oct 21
Last Quarter
Oct 27
New

Hourly Weather History & Observations

Time (CDT) Temp. Windchill Dew Point Humidity Pressure Visibility Wind Dir Wind Speed Gust Speed Precip Events Conditions
12:59 AM 48.2 °F - 48.2 °F 100% 30.00 in 2.0 mi NW 4.6 mph - 0.01 in   Overcast
1:59 AM 48.2 °F - 48.2 °F 100% 30.00 in 4.0 mi NW 3.5 mph - 0.01 in   Overcast
2:59 AM 48.2 °F - 48.2 °F 100% 30.02 in 10.0 mi WNW 6.9 mph - 0.01 in   Overcast
3:59 AM 46.4 °F 41.9 °F 46.4 °F 100% 30.03 in 7.0 mi WNW 9.2 mph - N/A   Overcast
4:59 AM 46.4 °F 41.9 °F 46.4 °F 100% 30.06 in 10.0 mi WNW 9.2 mph - N/A   Overcast
6:59 AM 46.4 °F 43.5 °F 46.4 °F 100% 30.10 in 10.0 mi West 5.8 mph - N/A   Overcast
7:59 AM 44.6 °F 39.7 °F 44.6 °F 100% 30.13 in 10.0 mi West 9.2 mph - N/A   Mostly Cloudy
8:59 AM 44.6 °F 38.8 °F 44.6 °F 100% 30.16 in 10.0 mi West 11.5 mph 16.1 mph N/A   Overcast
9:59 AM 44.6 °F 38.8 °F 44.6 °F 100% 30.19 in 10.0 mi West 11.5 mph 17.3 mph N/A   Overcast
10:59 AM 44.6 °F 39.7 °F 41.0 °F 87% 30.21 in 10.0 mi West 9.2 mph 21.9 mph N/A   Overcast
11:59 AM 44.6 °F 39.7 °F 41.0 °F 87% 30.22 in 10.0 mi WNW 9.2 mph 17.3 mph N/A   Overcast
12:59 PM 46.4 °F 40.4 °F 39.2 °F 76% 30.24 in 10.0 mi WNW 13.8 mph - N/A   Overcast
1:59 PM 46.4 °F 40.7 °F 39.2 °F 76% 30.25 in 10.0 mi WNW 12.7 mph 17.3 mph N/A   Overcast
2:59 PM 46.4 °F 41.5 °F 39.2 °F 76% 30.27 in 10.0 mi WNW 10.4 mph - N/A   Overcast
3:59 PM 44.6 °F 39.7 °F 39.2 °F 81% 30.29 in 10.0 mi WNW 9.2 mph 17.3 mph N/A   Overcast
4:59 PM 44.6 °F 40.7 °F 39.2 °F 81% 30.31 in 10.0 mi WNW 6.9 mph - N/A   Overcast
5:59 PM 44.6 °F 40.2 °F 39.2 °F 81% 30.33 in 10.0 mi WNW 8.1 mph - N/A   Overcast
6:59 PM 44.6 °F 42.2 °F 39.2 °F 81% 30.34 in 10.0 mi NW 4.6 mph - N/A   Overcast
7:59 PM 44.6 °F 40.7 °F 39.2 °F 81% 30.35 in 10.0 mi NW 6.9 mph - N/A   Overcast
8:59 PM 44.6 °F 42.2 °F 39.2 °F 81% 30.36 in 10.0 mi WNW 4.6 mph - N/A   Overcast
10:59 PM 44.6 °F 43.1 °F 41.0 °F 87% 30.37 in 10.0 mi NW 3.5 mph - N/A   Overcast